London, United Kingdom

12:38 AM BST on March 27, 2017 (GMT +0100)
Heathrow Airport

Weather History for EGLL - April, 2013

Change the Weather History Date:

Wednesday, April 10, 2013

  Actual Average Record
Temperature  
Mean Temperature 44 °F -  
Max Temperature 52 °F 58 °F 70 °F (2015)
Min Temperature 37 °F 43 °F 32 °F (2006)
Degree Days  
Heating Degree Days 20    
Moisture  
Dew Point 38 °F    
Average Humidity 79    
Maximum Humidity 93    
Minimum Humidity 58    
Precipitation  
Precipitation 0.24 in - - ()
Sea Level Pressure  
Sea Level Pressure 29.63 in    
Wind  
Wind Speed 6 mph ()    
Max Wind Speed 13 mph    
Max Gust Speed -    
Visibility 2.9 miles    
Events Rain    
Averages and records for this station are not official NWS values.
T = Trace of Precipitation, MM = Missing Value Source: Averaged Metar Reports

Daily Weather History Graph

Daily Weather History Graph

Search for Another Location

Airport or City:

Trip Planner

Search our weather history database for the weather conditions in past years. The results will help you decide how hot, cold, wet, or windy it might be!

Date:

Astronomy

Apr. 10, 2013 Rise Set
Actual Time 6:16 AM BST 7:50 PM BST
Civil Twilight 5:42 AM BST 8:25 PM BST
Nautical Twilight 4:59 AM BST 9:08 PM BST
Astronomical Twilight 4:12 AM BST 9:55 PM BST
Moon 6:02 AM BST (4/10) 8:17 PM BST (4/10)
Length of Visible Light 14h 43m
Length of Day
13h 33m
New Moon, 0% of the Moon is Illuminated
Apr 10
New Moon
Apr 18
First Quarter
Apr 25
Full
May 2
Last Quarter
May 10
New

Hourly Weather History & Observations

Time (BST) Temp. Windchill Dew Point Humidity Pressure Visibility Wind Dir Wind Speed Gust Speed Precip Events Conditions
12:20 AM 44.6 °F 41.4 °F 39.2 °F 81% 29.56 in 2.5 mi NE 5.8 mph - N/A   Haze
12:50 AM 44 °F - 40 °F 79% 29.59 in 3 mi NNE 4.6 mph - -   Light Haze
12:50 AM 42.8 °F 40.1 °F 39.2 °F 87% 29.56 in 2.5 mi NNE 4.6 mph - N/A   Haze
1:20 AM 42.8 °F 40.1 °F 37.4 °F 81% 29.59 in - North 4.6 mph - N/A   Haze
1:50 AM 41.0 °F 35.8 °F 35.6 °F 81% 29.59 in - North 8.1 mph - N/A   Haze
2:20 AM 41.0 °F 36.4 °F 35.6 °F 81% 29.59 in 2.8 mi NNE 6.9 mph - N/A   Haze
2:50 AM 39.2 °F 34.2 °F 35.6 °F 87% 29.59 in 2.8 mi North 6.9 mph - N/A   Haze
3:20 AM 37.4 °F 34.9 °F 33.8 °F 87% 29.59 in 2.5 mi Variable 3.5 mph - N/A   Haze
3:50 AM 38 °F - 35 °F 84% 29.63 in 2 mi North 5.8 mph - -   Light Haze
3:50 AM 37.4 °F 33.8 °F 33.8 °F 87% 29.62 in 1.9 mi North 4.6 mph - N/A   Haze
4:20 AM 37.4 °F 34.9 °F 35.6 °F 93% 29.65 in 1.9 mi Variable 3.5 mph - N/A   Haze
4:50 AM 37.4 °F 32.8 °F 35.6 °F 93% 29.65 in 1.9 mi North 5.8 mph - N/A   Haze
5:20 AM 37.4 °F 32.8 °F 35.6 °F 93% 29.65 in 1.9 mi North 5.8 mph - N/A   Haze
5:50 AM 37.4 °F 32.8 °F 35.6 °F 93% 29.65 in 1.6 mi North 5.8 mph - N/A   Haze
6:20 AM 37.4 °F 34.9 °F 33.8 °F 87% 29.68 in 1.6 mi Variable 3.5 mph - N/A   Haze
6:50 AM 38 °F - 35 °F 82% 29.70 in 2 mi North 4.6 mph - -   Light Haze
6:50 AM 37.4 °F 33.8 °F 33.8 °F 87% 29.68 in 1.6 mi NNW 4.6 mph - N/A   Haze
7:20 AM 37.4 °F 33.8 °F 33.8 °F 87% 29.71 in 1.7 mi WNW 4.6 mph - N/A   Haze
7:50 AM 37.4 °F 33.8 °F 33.8 °F 87% 29.71 in 1.6 mi NW 4.6 mph - N/A   Haze
8:20 AM 37.4 °F 34.9 °F 33.8 °F 87% 29.71 in 1.6 mi Variable 3.5 mph - N/A   Haze
8:50 AM 37.4 °F - 33.8 °F 87% 29.71 in 1.6 mi Variable 2.3 mph - N/A   Haze
9:20 AM 39.2 °F - 33.8 °F 81% 29.71 in 1.7 mi Calm Calm - N/A   Haze
9:50 AM 41 °F - 36 °F 75% 29.72 in 2 mi East 3.5 mph - -   Light Haze
9:50 AM 41.0 °F - 35.6 °F 81% 29.71 in 1.8 mi Variable 2.3 mph - N/A   Haze
10:20 AM 42.8 °F - 35.6 °F 76% 29.71 in 1.9 mi Variable 2.3 mph - N/A   Haze
10:50 AM 44.6 °F 43.1 °F 37.4 °F 76% 29.71 in - Variable 3.5 mph - N/A   Haze
11:20 AM 44.6 °F 43.1 °F 37.4 °F 76% 29.71 in - Variable 3.5 mph - N/A   Haze
11:50 AM 48.2 °F - 37.4 °F 66% 29.71 in - Variable 3.5 mph - N/A   Haze
12:20 PM 50.0 °F - 39.2 °F 66% 29.71 in 3.1 mi South 5.8 mph - N/A   Haze
12:50 PM 50 °F - 40 °F 58% 29.70 in 3 mi SSE 6.9 mph - -   Light Haze
12:50 PM 50.0 °F - 39.2 °F 66% 29.71 in 3.1 mi South 5.8 mph - N/A   Haze
1:20 PM 50.0 °F - 39.2 °F 66% 29.71 in 3.7 mi South 8.1 mph - N/A   Unknown
1:50 PM 50.0 °F - 41.0 °F 71% 29.68 in 3.7 mi SSE 9.2 mph - N/A   Partly Cloudy
2:20 PM 50.0 °F - 39.2 °F 66% 29.68 in 3.7 mi SSE 10.4 mph - N/A   Partly Cloudy
2:50 PM 50.0 °F - 39.2 °F 66% 29.68 in 3.7 mi SSE 10.4 mph - N/A   Partly Cloudy
3:20 PM 50.0 °F - 39.2 °F 66% 29.68 in 3.7 mi SSE 10.4 mph - N/A   Partly Cloudy
3:50 PM 50 °F - 40 °F 58% 29.67 in 4 mi SSE 11.5 mph - -   Light Haze
3:50 PM 50.0 °F - 39.2 °F 66% 29.65 in 4.3 mi SSE 10.4 mph - N/A   Partly Cloudy
4:20 PM 50.0 °F - 37.4 °F 62% 29.65 in 5.0 mi SSE 10.4 mph - N/A   Partly Cloudy
4:50 PM 50.0 °F - 37.4 °F 62% 29.65 in 5.6 mi South 10.4 mph - N/A   Partly Cloudy
5:20 PM 50.0 °F - 39.2 °F 66% 29.62 in 6.2 mi SSE 10.4 mph - N/A   Partly Cloudy
5:50 PM 50.0 °F - 39.2 °F 66% 29.62 in 6.2 mi SSE 10.4 mph - N/A   Partly Cloudy
6:20 PM 48.2 °F - 39.2 °F 71% 29.59 in 5.6 mi ESE 11.5 mph - N/A   Partly Cloudy
6:50 PM 49 °F - 39 °F 60% 29.60 in 6 mi SE 11.5 mph - -   Scattered Clouds
6:50 PM 48.2 °F - 39.2 °F 71% 29.59 in 5.6 mi SE 11.5 mph - N/A   Partly Cloudy
7:20 PM 46.4 °F 41.5 °F 41.0 °F 81% 29.56 in 3.7 mi ESE 10.4 mph - N/A Rain Light Rain
7:50 PM 46.4 °F 41.5 °F 41.0 °F 81% 29.56 in 3.1 mi ESE 10.4 mph - N/A Rain Light Rain
8:20 PM 44.6 °F 39.2 °F 41.0 °F 87% 29.56 in - East 10.4 mph - N/A Rain Rain
8:50 PM 44.6 °F 38.8 °F 41.0 °F 87% 29.53 in 2.5 mi East 11.5 mph - N/A Rain Rain
9:20 PM 44.6 °F 39.2 °F 41.0 °F 87% 29.53 in 2.5 mi East 10.4 mph - N/A Rain Rain
9:50 PM 44 °F - 42 °F 91% 29.52 in 2 mi East 11.5 mph - - Rain Light Rain
9:50 PM 44.6 °F 38.4 °F 41.0 °F 87% 29.50 in - East 12.7 mph - N/A Rain Rain
10:20 PM 44.6 °F 38.8 °F 41.0 °F 87% 29.50 in 2.2 mi East 11.5 mph - N/A Rain Rain
10:50 PM 44.6 °F 39.7 °F 42.8 °F 93% 29.47 in 1.9 mi ENE 9.2 mph - N/A Rain Rain
11:20 PM 44.6 °F 38.4 °F 42.8 °F 93% 29.44 in 1.9 mi ENE 12.7 mph - N/A Rain Rain
11:50 PM 44.6 °F 38.4 °F 42.8 °F 93% 29.44 in 1.9 mi ENE 12.7 mph - N/A Rain Rain